Location: Antioch Baptist Church
(32.6696°N, 85.7327°W)
Time: 12:25:18
(UTC+00:00)

SeaSat 1 - Pass Details

Date: 14 July 2020
Orbit: 744 x 747 km, 108.0° (Epoch: 09 August)

Event Time Altitude Azimuth Distance (km) Brightness Sun altitude
Rises 07:18:12 0° 24° (NNE) 3,194 6.9 -31.7°
Reaches altitude 10° 07:20:28 10° 25° (NNE) 2,267 5.8 -31.5°
Enters shadow 07:24:06 50° 32° (NNE) 947 3.2 -31.2°
